Volver al catálogo

COSMOS 1605

ActivoMilitarPO
NORAD 15359·PAYLOAD·🇷🇺 Russia

Lanzado Oct 11, 1984 desde Plesetsk Cosmodrome

Loading…

Próximos Pases (próximas 24 horas)

TLE

ActualizadoSource: Space-Track

Época: Sep 14, 2026, 00:45 UTC

1 15359U 84109A   26257.03176189  .00000035  00000-0  19677-4 0  9994
2 15359  82.9355  86.1969 0047623  74.5498  82.9620 13.75427517104043

Sigue COSMOS 1605 en tiempo real con AllMySat

Download on the App Store